Weather History for Alabaster, AL

Change the Weather History Date:

Wednesday, November 28, 2012

  Actual Average Record
Temperature  
Mean Temperature 47 °F 51 °F  
Max Temperature 58 °F 62 °F 77 °F (1970)
Min Temperature 36 °F 41 °F 19 °F (1956)
Degree Days  
Heating Degree Days 18 14  
Month to date heating degree days 343 291  
Since 1 July heating degree days 456 414  
Moisture  
Dew Point 33 °F    
Average Humidity 61    
Maximum Humidity 89    
Minimum Humidity 33    
Precipitation  
Precipitation 0.00 in 0.17 in 2.35 in (1948)
Month to date precipitation 1.39 4.60  
Year to date precipitation 47.95 49.53  
Snow  
Snow 0.00 in - - ()
Month to date snowfall 0.0  
Since 1 July snowfall 0.0  
Since 1 September snowfall 0.0  
Snow Depth 0.00 in    
Sea Level Pressure  
Sea Level Pressure 30.37 in    
Wind  
Wind Speed 4 mph (North)    
Max Wind Speed 12 mph    
Max Gust Speed 17 mph    
Visibility 8 miles    
Events      
T = Trace of Precipitation, MM = Missing Value Source: NWS Daily Summary

Daily Weather History Graph

Daily Weather History Graph

Search for Another Location

Airport:

Trip Planner

Search our weather history database for the weather conditions in past years. The results will help you decide how hot, cold, wet, or windy it might be!

Date:

Astronomy

Nov. 28, 2012 Rise Set
Actual Time 6:30 AM CST 4:40 PM CST
Civil Twilight 6:03 AM CST 5:07 PM CST
Nautical Twilight 5:32 AM CST 5:37 PM CST
Astronomical Twilight 5:02 AM CST 6:07 PM CST
Moon 4:55 PM CST (11/28) 6:27 AM CST (11/28)
Length of Visible Light 11h 03m
Length of Day
10h 09m
Full, 100% of the Moon is Illuminated
Nov 28
Full
Dec 6
Last Quarter
Dec 13
New
Dec 19
First Quarter
Dec 28
Full

Hourly Weather History & Observations

Time (CST) Temp. Windchill Dew Point Humidity Pressure Visibility Wind Dir Wind Speed Gust Speed Precip Events Conditions
12:53 AM 44.1 °F 39.5 °F 37.9 °F 79% 30.30 in 7.0 mi NNW 8.1 mph - N/A   Overcast
1:53 AM 43.0 °F 38.8 °F 37.0 °F 80% 30.32 in 7.0 mi North 6.9 mph - N/A   Overcast
2:53 AM 42.1 °F 37.7 °F 36.0 °F 79% 30.34 in 7.0 mi North 6.9 mph - N/A   Overcast
3:53 AM 42.1 °F 38.4 °F 35.1 °F 76% 30.34 in 7.0 mi North 5.8 mph - N/A   Overcast
4:53 AM 39.9 °F 36.7 °F 34.0 °F 79% 30.35 in 7.0 mi North 4.6 mph - N/A   Mostly Cloudy
5:18 AM 39.2 °F 35.9 °F 33.8 °F 81% 30.36 in 6.0 mi North 4.6 mph - N/A   Haze
5:44 AM 39.2 °F 35.9 °F 33.8 °F 81% 30.37 in 6.0 mi North 4.6 mph - N/A   Haze
5:53 AM 39.0 °F 35.7 °F 33.1 °F 79% 30.38 in 6.0 mi North 4.6 mph - N/A   Haze
6:53 AM 39.0 °F 36.8 °F 34.0 °F 82% 30.39 in 5.0 mi North 3.5 mph - N/A   Haze
7:53 AM 39.9 °F 35.8 °F 34.0 °F 79% 30.41 in 5.0 mi North 5.8 mph - N/A   Haze
8:20 AM 41.0 °F 38.0 °F 33.8 °F 76% 30.41 in 6.0 mi North 4.6 mph - N/A   Haze
8:53 AM 42.1 °F 38.4 °F 34.0 °F 73% 30.43 in 7.0 mi NNW 5.8 mph - N/A   Partly Cloudy
9:53 AM 45.0 °F 41.8 °F 35.1 °F 68% 30.44 in 7.0 mi Variable 5.8 mph - N/A   Clear
10:53 AM 48.9 °F - 33.1 °F 54% 30.43 in 9.0 mi NNW 3.5 mph - N/A   Clear
11:53 AM 53.1 °F - 30.0 °F 41% 30.40 in 10.0 mi Variable 4.6 mph - N/A   Clear
12:53 PM 55.9 °F - 30.9 °F 39% 30.38 in 10.0 mi Variable 3.5 mph - N/A   Clear
1:53 PM 57.0 °F - 30.0 °F 36% 30.35 in 10.0 mi NNW 5.8 mph - N/A   Clear
2:53 PM 57.9 °F - 28.0 °F 32% 30.35 in 10.0 mi North 4.6 mph - N/A   Clear
3:53 PM 57.0 °F - 28.0 °F 33% 30.35 in 10.0 mi Variable 3.5 mph - N/A   Clear
4:53 PM 51.1 °F - 30.0 °F 44% 30.36 in 10.0 mi Calm Calm - N/A   Clear
5:53 PM 45.0 °F - 33.1 °F 63% 30.37 in 10.0 mi Calm Calm - N/A   Clear
6:53 PM 43.0 °F - 34.0 °F 71% 30.38 in 10.0 mi Calm Calm - N/A   Clear
7:53 PM 41.0 °F - 35.1 °F 79% 30.38 in 10.0 mi Calm Calm - N/A   Clear
8:53 PM 39.9 °F - 34.0 °F 79% 30.38 in 10.0 mi Calm Calm - N/A   Clear
9:53 PM 37.9 °F - 33.1 °F 83% 30.39 in 10.0 mi Calm Calm - N/A   Clear
10:53 PM 36.0 °F - 32.0 °F 86% 30.38 in 10.0 mi Calm Calm - N/A   Clear
11:53 PM 36.0 °F - 32.0 °F 86% 30.37 in 10.0 mi Calm Calm - N/A   Clear